Lid_Strength_Index
1 1 1 1 1 1 1 1 0 -0 -0 0 0 0 0 1 1 0 1 1 1 1
1 1 1 1 1 1 0 0 0 0 0 0 0 1 1 1 1 1 1 1 1 1
1 1 1 1 1 1 0 0 0 0 0 1 1 1 1 1 1 2 2 2 2 2
1 1 1 1 1 1 0 0 1 1 1 2 2 2 2 2 2 3 2 2 2 2
1 1 1 1 1 0 1 1 1 1 2 2 2 2 3 2 3 3 3 4 4 4
2 2 2 1 1 1 1 2 2 2 3 3 3 3 2 2 3 3 4 5 5 6
2 2 2 1 1 1 2 3 3 3 3 2 3 2 3 4 6 6 7 7 7 8
2 1 1 1 1 2 3 3 2 2 3 4 4 5 5 6 7 8 9 9 9 9
2 2 2 2 2 3 3 2 4 5 5 5 7 12 11 8 7 8 9 10 10 10
2 3 2 3 3 3 4 5 6 6 7 8 9 13 12 11 9 9 9 10 12 12
3 3 3 3 4 5 6 6 6 8 8 8 11 13 12 12 10 11 12 13 12 11
2 3 3 4 5 5 6 7 8 9 9 10 12 13 13 11 13 14 14 14 15 15
3 3 3 3 5 6 6 9 10 10 9 11 12 14 13 11 13 15 14 14 14 14
3 4 3 5 6 7 9 10 10 11 11 11 11 13 13 12 12 13 13 14 14 14